Weather History for Pine Ridge, SD

Change the Weather History Date:

Tuesday, February 14, 2012

  Actual Average Record
Temperature  
Mean Temperature 38 °F 26 °F  
Max Temperature 51 °F 39 °F 70 °F (1999)
Min Temperature 25 °F 13 °F -25 °F (2007)
Degree Days  
Heating Degree Days 27 39  
Month to date heating degree days 554 559  
Since 1 July heating degree days 4543 4836  
Cooling Degree Days 0 0  
Month to date cooling degree days 0 0  
Year to date cooling degree days 0 0  
Moisture  
Dew Point 23 °F    
Average Humidity 55    
Maximum Humidity 82    
Minimum Humidity 27    
Precipitation  
Precipitation 0.01 in 0.01 in 0.03 in (2001)
Month to date precipitation 0.01 0.25  
Year to date precipitation 0.40 0.57  
Sea Level Pressure  
Sea Level Pressure 29.74 in    
Wind  
Wind Speed 6 mph (West)    
Max Wind Speed 20 mph    
Max Gust Speed 25 mph    
Visibility 9 miles    
Events Snow    
T = Trace of Precipitation, MM = Missing Value Source: NWS Daily Summary

Daily Weather History Graph

Daily Weather History Graph

Search for Another Location

Airport:

Trip Planner

Search our weather history database for the weather conditions in past years. The results will help you decide how hot, cold, wet, or windy it might be!

Date:

Astronomy

Feb. 14, 2012 Rise Set
Actual Time 6:49 AM MST 5:19 PM MST
Civil Twilight 6:20 AM MST 5:48 PM MST
Nautical Twilight 5:47 AM MST 6:22 PM MST
Astronomical Twilight 5:14 AM MST 6:54 PM MST
Moon 12:40 AM MST (2/14) 10:22 AM MST (2/14)
Length of Visible Light 11h 28m
Length of Day
10h 29m
Waning Gibbous, 49% of the Moon is Illuminated
Feb 14
Waning Gibbous
Feb 21
New
Feb 29
First Quarter
Mar 8
Full
Mar 14
Last Quarter

Hourly Weather History & Observations

Time (MST) Temp. Windchill Dew Point Humidity Pressure Visibility Wind Dir Wind Speed Gust Speed Precip Events Conditions
12:52 AM 32.0 °F 27.5 °F 25.0 °F 75% 29.75 in 10.0 mi WSW 4.6 mph - N/A   Overcast
1:52 AM 30.9 °F 25.2 °F 25.0 °F 79% 29.74 in 10.0 mi WSW 5.8 mph - N/A   Overcast
2:52 AM 30.9 °F 24.3 °F 24.1 °F 76% 29.73 in 10.0 mi WSW 6.9 mph - N/A   Overcast
3:52 AM 32.0 °F 26.4 °F 24.1 °F 73% 29.74 in 10.0 mi WSW 5.8 mph - N/A   Overcast
4:52 AM 30.0 °F 25.2 °F 23.0 °F 75% 29.75 in 10.0 mi West 4.6 mph - N/A   Mostly Cloudy
5:52 AM 27.0 °F - 21.0 °F 78% 29.78 in 10.0 mi Calm Calm - N/A   Overcast
6:52 AM 30.0 °F 26.5 °F 21.9 °F 72% 29.78 in 10.0 mi WSW 3.5 mph - N/A   Mostly Cloudy
7:52 AM 32.0 °F 27.5 °F 24.1 °F 73% 29.79 in 10.0 mi SW 4.6 mph - N/A   Overcast
8:52 AM 39.0 °F 33.4 °F 24.1 °F 55% 29.78 in 10.0 mi WSW 8.1 mph - N/A   Overcast
9:52 AM 42.1 °F 37.7 °F 23.0 °F 47% 29.75 in 10.0 mi WSW 6.9 mph - N/A   Scattered Clouds
10:52 AM 45.0 °F 40.6 °F 21.9 °F 40% 29.74 in 9.0 mi West 8.1 mph - N/A   Clear
11:52 AM 46.9 °F - 19.9 °F 34% 29.72 in 10.0 mi WNW 11.5 mph - N/A   Overcast
12:52 PM 48.0 °F - 18.0 °F 30% 29.69 in 10.0 mi WSW 5.8 mph - N/A   Scattered Clouds
1:52 PM 50.0 °F - 17.1 °F 27% 29.67 in 10.0 mi Calm Calm - N/A   Mostly Cloudy
2:52 PM 50.0 °F - 17.1 °F 27% 29.66 in 10.0 mi WSW 9.2 mph - N/A   Clear
3:52 PM 50.0 °F - 19.9 °F 31% 29.65 in 10.0 mi SW 5.8 mph - N/A   Partly Cloudy
4:52 PM 45.0 °F 43.5 °F 19.9 °F 37% 29.67 in 10.0 mi WSW 3.5 mph - N/A   Partly Cloudy
5:52 PM 35.1 °F 31.0 °F 19.9 °F 54% 29.73 in 10.0 mi East 4.6 mph - N/A   Mostly Cloudy
6:52 PM 30.9 °F - 19.0 °F 61% 29.73 in 10.0 mi Calm Calm - N/A   Mostly Cloudy
7:52 PM 35.1 °F - 21.0 °F 57% 29.73 in 10.0 mi Calm Calm - N/A   Scattered Clouds
8:52 PM 32.0 °F - 21.9 °F 66% 29.76 in 10.0 mi Calm Calm - N/A   Overcast
9:50 PM 35.6 °F 27.1 °F 30.2 °F 81% 29.76 in 10.0 mi North 12.7 mph - 0.00 in   Overcast
9:52 PM 36.0 °F 26.0 °F 30.0 °F 79% 29.81 in 10.0 mi North 17.3 mph 20.7 mph 0.00 in   Overcast
10:10 PM 33.8 °F 22.8 °F 30.2 °F 87% 29.76 in 1.8 mi North 18.4 mph 24.2 mph 0.00 in Snow Light Snow
10:19 PM 33.8 °F 25.3 °F 30.2 °F 87% 29.76 in 3.0 mi North 11.5 mph - 0.00 in Snow Light Snow
10:29 PM 33.8 °F 24.8 °F 30.2 °F 87% 29.77 in 8.0 mi North 12.7 mph - 0.00 in Snow Light Snow
11:52 PM 32.0 °F 24.8 °F 30.0 °F 92% 29.84 in 3.0 mi North 8.1 mph - 0.01 in Snow Light Snow